Regional Weather Roundup
Issued by NWS

Home | Current Version | Previous Version | Text Only | Print | Product List | Glossary On
Versions: 1 2 3 4 5 6 7 8 9 10 11 12 13 14 15 16 17 18 19 20 21 22 23 24 25 26 27 28 29 30 31 32 33 34 35 36 37 38 39 40 41 42 43 44 45 46 47 48 49 50
000
ASUS43 KMPX 250401
RWRMN
WEATHER ROUNDUP FOR MINNESOTA
NATIONAL WEATHER SERVICE TWIN CITIES/CHANHASSEN MN
1100 PM CDT THU APR 24 2014


NOTE: "FAIR" INDICATES FEW OR NO CLOUDS BELOW 12,000 FEET WITH NO
SIGNIFICANT WEATHER AND/OR OBSTRUCTIONS TO VISIBILITY. N/A MEANS
CURRENT SKY AND/OR WEATHER CONDITIONS ARE NOT AVAILABLE.

MNZ060>063-068>070-250500-
   Twin Cities Metro

CITY           SKY/WX    TMP DP  RH WIND       PRES   REMARKS
TWIN CITIES    CLEAR     42  38  85 CALM      29.73S
ST PAUL        PTCLDY    41  37  86 NW3       29.74R
CRYSTAL        CLEAR     39  36  89 S3        29.71S
BLAINE         CLEAR     41  39  93 CALM      29.71F
EDEN PRAIRIE   CLEAR     39  37  92 SW5       29.72S
LAKEVILLE      PTCLDY    39  37  93 CALM      29.74R
SOUTH ST PAUL  CLEAR     45  39  78 CALM      29.73S
LAKE ELMO      CLOUDY    43  37  81 W6        29.74R
$$
MNZ001>005-007-008-013>017-022>024-027-028-250500-
   Northwest Minnesota

CITY           SKY/WX    TMP DP  RH WIND       PRES   REMARKS
BEMIDJI        CLOUDY    32  32 100 CALM      29.68F
HALLOCK        CLOUDY    36  34  93 E5        29.74S
ROSEAU         LGT SNOW  34  28  80 E8        29.72F WCI  27
WARROAD        LGT SNOW  32  28  86 NE6       29.74F WCI  26
THIEF RVR FALL CLOUDY    34  30  86 E3        29.73S
CROOKSTON      MIX PCPN  37  36  93 NE6       29.72F
FOSSTON        FOG       32  32 100 CALM      29.71S VSB 3/4
DETROIT LAKES  CLEAR     36  36 100 CALM      29.68F FOG
MOORHEAD       MOCLDY    41  41 100 CALM      29.70S FOG
PARK RAPIDS    FOG       33  33 100 CALM      29.67F VSB 1/4
$$
MNZ006-009>011-018-025>026-250500-
   North Central Minnesota

CITY           SKY/WX    TMP DP  RH WIND       PRES   REMARKS
BAUDETTE       LGT SNOW  33  32  96 NE7       29.73F FOG     WCI  27
FLAG ISLAND    LGT SNOW  34  32  93 NE3       29.75F
INTL FALLS     LGT SNOW  33  31  92 E7        29.72F FOG     WCI  27
WASKISH        LGT SNOW  34  32  93 NE3       29.71F
BIG FORK       CLOUDY    34  32  93 NE1       29.69F
LONGVILLE      CLOUDY    32  32 100 CALM      29.68S FOG
GRAND RAPIDS   CLOUDY    32  30  93 CALM      29.68S
CRANE LAKE     LGT SNOW  30  30 100 CALM      29.73F VSB 3/4
ORR            LGT SNOW  32  30  93 CALM      29.68F
COOK           LGT SNOW  32  32 100 CALM      29.69F
$$
MNZ012-019>021-037-250500-
   Northeast Minnesota

CITY           SKY/WX    TMP DP  RH WIND       PRES   REMARKS
DULUTH         LGT SNOW  32  31  96 E10       29.67F FOG     WCI  24
ELY            LGT SNOW  34  30  86 E9        29.69F WCI  26
HIBBING        LGT SNOW  33  31  92 E3        29.68F FOG
EVELETH        LGT SNOW  32  32 100 CALM      29.69F
DULUTH HARBOR  MIX PCPN  34  30  86 NE12      29.71S WCI  25
TWO HARBORS    LGT SNOW  32  27  80 NE12      29.68F WCI  23
SILVER BAY     LGT SNOW  30  30 100 NE12G17   29.70F WCI  21
GRAND MARAIS     N/A     34  32  92 NE21G35   29.79F WCI  22
G MARAIS ARPRT LGT SNOW  30  27  86 E20G32    29.74F VSB 3/4 WCI  18
$$
MNZ029>031-032-039>041-046>048-054>057-064-250500-
   West Central Minnesota

CITY           SKY/WX    TMP DP  RH WIND       PRES   REMARKS
FERGUS FALLS   CLEAR     41  36  81 CALM      29.68S
WHEATON        CLEAR     39  39 100 S8        29.74S
MORRIS         CLEAR     39  37  93 SW6       29.71S
ALEXANDRIA     CLEAR     39  35  86 CALM      29.71R
ELBOW LAKE     FAIR      36  35  94 SW6       29.70S
WADENA         FOG       34  32  93 CALM      29.67F VSB 1
GLENWOOD       CLEAR     39  37  93 CALM      29.71R
APPLETON       CLEAR     43  39  87 SW5       29.73S
BENSON         CLEAR     39  37  93 W6        29.73R
ORTONVILLE     CLEAR     43  37  81 SW5       29.73S
MADISON        CLEAR     45  41  87 SW3       29.74S
WILLMAR        FAIR      41  37  87 SW5       29.74S
$$
MNZ033>034-036-042>043-049>051-058-059-250500-
   Central Minnesota

CITY           SKY/WX    TMP DP  RH WIND       PRES   REMARKS
ST CLOUD       CLEAR     38  35  89 S8        29.70F
SAUK CENTRE    FAIR      36  35  98 NW5       29.71R
PAYNESVILLE    CLEAR     40  38  95 CALM      29.72S
AITKIN         CLOUDY    36  30  80 CALM      29.67S HAZE
PINE RIVER     DRIZZLE   34  34 100 CALM      29.72S
BRAINERD       FOG       39  35  86 CALM      29.68F VSB 1/2
STAPLES        FOG       36  36 100 CALM      29.68F VSB 1/4
LONG PRAIRIE   FAIR      37  36  93 CALM      29.70R
LITTLE FALLS   FOG       34  32  93 CALM      29.70R VSB 1
LITCHFIELD       N/A     41  41 100 CALM      29.73S
BUFFALO        CLEAR     38  36  93 S3        29.73R
MAPLE LAKE     CLEAR     38  37  99 CALM      29.72R
$$
MNZ037-044-045-052-053-250500-
   East Central Minnesota

CITY           SKY/WX    TMP DP  RH WIND       PRES   REMARKS
PRINCETON      CLEAR     37  36  93 CALM      29.70F FOG
MORA           CLOUDY    36  34  93 CALM      29.71F
CAMBRIDGE      MOCLDY    41  34  75 CALM      29.68F
RUSH CITY      CLOUDY    37  35  95 CALM      29.71S
MOOSE LAKE     LGT SNOW  32  32 100 CALM      29.68F
HINCKLEY       CLOUDY    36  34  93 SW3       29.70F
CLOQUET        LGT SNOW  32  32 100 CALM      29.68F
MCGREGOR       CLOUDY    32  32 100 CALM      29.68F
$$
MNZ071>073-080-081-089-090-097-098-250500-
   Southwest Minnesota

CITY           SKY/WX    TMP DP  RH WIND       PRES   REMARKS
MONTEVIDEO     CLEAR     45  45 100 W6        29.74F
GRANITE FALLS  CLEAR     42  39  87 SW8       29.75S
CANBY          CLEAR     40  39  98 S3        29.76R FOG
MARSHALL       CLEAR     43  37  81 SW6       29.75R
REDWOOD FALLS  CLEAR     46  41  82 SW9       29.74S
OLIVIA         CLEAR     41  37  87 W8        29.73S
PIPESTONE      CLEAR     46  41  81 SE7       29.75S
WINDOM         CLEAR     39  39 100 CALM      29.77R
WORTHINGTON    CLEAR     45  36  70 S7        29.79R
JACKSON        PTCLDY    41  37  87 SW5       29.77S
TRACY          CLEAR     46  42  86 S6        29.75F
SLAYTON        CLEAR     43  40  91 S6        29.77R
$$
MNZ065>067-074>077-082>085-091>093-250500-
   South Central Minnesota

CITY           SKY/WX    TMP DP  RH WIND       PRES   REMARKS
MANKATO        CLEAR     45  39  81 SW6       29.75R
NEW ULM        CLEAR     43  43 100 SW7       29.74S
ST JAMES       CLEAR     45  41  87 SW5       29.76F
FAIRMONT       CLEAR     45  39  81 SW5       29.78R
GLENCOE        CLEAR     40  37  89 S3        29.73S
FARIBAULT      PTCLDY    41  36  81 CALM      29.75R
OWATONNA       PTCLDY    39  36  87 CALM      29.75S
WASECA         PTCLDY    37  34  87 CALM      29.76S HAZE
ALBERT LEA     MOCLDY    43  41  93 CALM      29.75S FOG
$$
MNZ078>079-086>088-094>096-250500-
   Southeast Minnesota

CITY           SKY/WX    TMP DP  RH WIND       PRES   REMARKS
ROCHESTER      CLOUDY    42  38  85 NW8       29.74S
RED WING       CLOUDY    45  41  87 NW6       29.73R
STANTON        PTCLDY    40  36  87 CALM      29.73S
DODGE CENTER   MOCLDY    45  41  87 W3        29.74S
WINONA         CLOUDY    45  41  87 NW5       29.74R
AUSTIN         MOCLDY    43  39  87 CALM      29.75R
PRESTON        CLOUDY    43  40  88 NW5       29.74S
$$
ABBREVIATIONS USED IN REMARKS
   TC - TEMPERATURES IN CELSIUS
  WCI - WIND CHILL INDEX
   HX - HEAT INDEX
  VSB - VISIBILITY
$$



USA.gov is the U.S. government's official web portal to all federal, state and local government web resources and services.